Big Bear City, CA

12:24 PM PDT on May 23, 2018 (GMT -0700)
Big Bear City

Weather History for KL35 - July, 2014

Change the Weather History Date:

Saturday, July 19, 2014

  Actual Average (WUND) Record (WUND)
Temperature  
Mean Temperature 60 °F -  
Max Temperature 69 °F - - (-1)
Min Temperature 50 °F - - (-1)
Degree Days  
Heating Degree Days 6    
Growing Degree Days 10 (Base 50)    
Moisture  
Dew Point 37 °F    
Average Humidity 42    
Maximum Humidity 67    
Minimum Humidity 31    
Precipitation  
Precipitation 0.00 in - - ()
Sea Level Pressure  
Sea Level Pressure 30.26 in    
Wind  
Wind Speed 2 mph (SE)    
Max Wind Speed 12 mph    
Max Gust Speed 16 mph    
Visibility 10 miles    
Events Rain    
Averages and records for this station are not official NWS values.
T = Trace of Precipitation, MM = Missing Value Source: NWS Daily Summary

Daily Weather History Graph

Daily Weather History Graph

Search for Another Location

Airport or City:

Astronomy

Jul. 19, 2014 Rise Set
Actual Time 5:49 AM PDT 7:57 PM PDT
Civil Twilight 5:20 AM PDT 8:26 PM PDT
Nautical Twilight 4:46 AM PDT 9:00 PM PDT
Astronomical Twilight 4:08 AM PDT 9:37 PM PDT
Moon 12:19 AM PDT (7/19) 1:50 PM PDT (7/19)
Length of Visible Light 15h 05m
Length of Day
14h 08m
Last Quarter, 43% of the Moon is Illuminated
Jul 19
Last Quarter
Jul 26
New
Aug 3
First Quarter
Aug 10
Full
Aug 17
Last Quarter

Hourly Weather History & Observations

Time (PDT) Temp. Dew Point Humidity Pressure Visibility Wind Dir Wind Speed Gust Speed Precip Events Conditions
12:15 AM 57.2 °F 26.6 °F 31% 30.25 in 10.0 mi Calm Calm - N/A   Clear
12:35 AM 55.4 °F 26.6 °F 33% 30.25 in 10.0 mi Calm Calm - N/A   Clear
12:55 AM 55.4 °F 26.6 °F 33% 30.25 in 10.0 mi Calm Calm - N/A   Clear
1:35 AM 55.4 °F 28.4 °F 36% 30.24 in 10.0 mi Calm Calm - N/A   Clear
1:55 AM 55.4 °F 28.4 °F 36% 30.24 in 10.0 mi Calm Calm - N/A   Clear
2:15 AM 55.4 °F 30.2 °F 38% 30.24 in 10.0 mi Calm Calm - N/A   Clear
2:35 AM 55.4 °F 30.2 °F 38% 30.23 in 10.0 mi Calm Calm - N/A   Clear
2:55 AM 55.4 °F 30.2 °F 38% 30.23 in 10.0 mi Calm Calm - N/A   Clear
3:15 AM 55.4 °F 30.2 °F 38% 30.23 in 10.0 mi Calm Calm - N/A   Clear
3:35 AM 53.6 °F 30.2 °F 41% 30.23 in 10.0 mi Calm Calm - N/A   Clear
3:55 AM 53.6 °F 30.2 °F 41% 30.23 in 10.0 mi Calm Calm - N/A   Clear
4:15 AM 53.6 °F 30.2 °F 41% 30.23 in 10.0 mi Calm Calm - N/A   Clear
4:35 AM 51.8 °F 30.2 °F 44% 30.23 in 10.0 mi Calm Calm - N/A   Clear
4:55 AM 51.8 °F 30.2 °F 44% 30.24 in 10.0 mi Calm Calm - N/A   Clear
5:15 AM 51.8 °F 30.2 °F 44% 30.25 in 10.0 mi Calm Calm - N/A   Clear
5:35 AM 50.0 °F 28.4 °F 43% 30.25 in 10.0 mi Calm Calm - N/A   Clear
5:55 AM 50.0 °F 28.4 °F 43% 30.25 in 10.0 mi Calm Calm - N/A   Clear
6:15 AM 50.0 °F 28.4 °F 43% 30.26 in 10.0 mi Calm Calm - N/A   Mostly Cloudy
6:35 AM 51.8 °F 28.4 °F 41% 30.26 in 10.0 mi Calm Calm - N/A   Mostly Cloudy
6:55 AM 51.8 °F 30.2 °F 44% 30.26 in 10.0 mi Calm Calm - N/A   Scattered Clouds
7:15 AM 53.6 °F 32.0 °F 44% 30.27 in 10.0 mi Calm Calm - N/A   Clear
7:35 AM 53.6 °F 32.0 °F 44% 30.27 in 10.0 mi Calm Calm - N/A   Clear
7:55 AM 55.4 °F 33.8 °F 44% 30.28 in 10.0 mi West 3.5 mph - N/A   Clear
8:15 AM 59.0 °F 37.4 °F 45% 30.28 in 10.0 mi Calm Calm - N/A   Clear
8:35 AM 62.6 °F 35.6 °F 37% 30.29 in 10.0 mi SE 4.6 mph - N/A   Mostly Cloudy
8:55 AM 64.4 °F 37.4 °F 37% 30.29 in 10.0 mi WNW 6.9 mph - N/A Rain Light Rain
9:15 AM 62.6 °F 44.6 °F 52% 30.28 in 10.0 mi NNW 3.5 mph - N/A Rain Light Rain
9:35 AM 68.0 °F 39.2 °F 35% 30.29 in 10.0 mi West 3.5 mph - N/A   Mostly Cloudy
9:55 AM 68.0 °F 37.4 °F 33% 30.28 in 10.0 mi West 3.5 mph - N/A   Mostly Cloudy
10:15 AM 68.0 °F 37.4 °F 33% 30.29 in 10.0 mi West 4.6 mph - N/A   Mostly Cloudy
10:35 AM 69.8 °F 41.0 °F 35% 30.29 in 10.0 mi Calm Calm - N/A   Mostly Cloudy
10:55 AM 69.8 °F 41.0 °F 35% 30.29 in 10.0 mi West 8.1 mph - N/A   Mostly Cloudy
11:15 AM 69.8 °F 41.0 °F 35% 30.30 in 10.0 mi West 6.9 mph - N/A   Mostly Cloudy
11:35 AM 69.8 °F 41.0 °F 35% 30.29 in 10.0 mi ESE 3.5 mph - N/A   Mostly Cloudy
11:55 AM 69.8 °F 37.4 °F 31% 30.30 in 10.0 mi NE 8.1 mph - N/A   Mostly Cloudy
12:15 PM 69.8 °F 37.4 °F 31% 30.30 in 10.0 mi East 3.5 mph - N/A   Mostly Cloudy
12:35 PM 69.8 °F 41.0 °F 35% 30.30 in 10.0 mi East 9.2 mph - N/A   Overcast
12:55 PM 68.0 °F 42.8 °F 40% 30.30 in 10.0 mi NE 3.5 mph - N/A Rain Light Rain
1:15 PM 68.0 °F 42.8 °F 40% 30.29 in 10.0 mi NE 5.8 mph - N/A   Mostly Cloudy
1:35 PM 69.8 °F 41.0 °F 35% 30.29 in 10.0 mi East 8.1 mph - N/A   Overcast
1:55 PM 69.8 °F 37.4 °F 31% 30.29 in 10.0 mi SE 11.5 mph - N/A   Overcast
2:15 PM 68.0 °F 41.0 °F 37% 30.29 in 10.0 mi ESE 8.1 mph 16.1 mph N/A   Overcast
2:35 PM 68.0 °F 41.0 °F 37% 30.29 in 10.0 mi ESE 10.4 mph - N/A   Overcast
2:55 PM 68.0 °F 42.8 °F 40% 30.28 in 10.0 mi East 6.9 mph - N/A   Overcast
3:15 PM 68.0 °F 41.0 °F 37% 30.28 in 10.0 mi ESE 5.8 mph - N/A   Overcast
3:35 PM 68.0 °F 42.8 °F 40% 30.27 in 10.0 mi South 3.5 mph - N/A   Overcast
3:55 PM 68.0 °F 42.8 °F 40% 30.26 in 10.0 mi Calm Calm - N/A   Overcast
4:15 PM 69.8 °F 42.8 °F 38% 30.25 in 10.0 mi ENE 3.5 mph - N/A   Overcast
4:35 PM 69.8 °F 42.8 °F 38% 30.25 in 10.0 mi Calm Calm - N/A   Overcast
4:55 PM 68.0 °F 42.8 °F 40% 30.25 in 10.0 mi West 5.8 mph - N/A   Overcast
5:15 PM 69.8 °F 42.8 °F 38% 30.24 in 10.0 mi West 6.9 mph - N/A   Overcast
5:35 PM 69.8 °F 42.8 °F 38% 30.24 in 10.0 mi SSW 3.5 mph - N/A   Overcast
5:55 PM 69.8 °F 42.8 °F 38% 30.24 in 10.0 mi Calm Calm - N/A   Overcast
6:15 PM 68.0 °F 42.8 °F 40% 30.24 in 10.0 mi SSW 5.8 mph - N/A   Mostly Cloudy
6:35 PM 68.0 °F 42.8 °F 40% 30.24 in 10.0 mi SW 4.6 mph - N/A   Mostly Cloudy
6:55 PM 68.0 °F 42.8 °F 40% 30.24 in 10.0 mi NW 4.6 mph - N/A   Mostly Cloudy
8:15 PM 64.4 °F 44.6 °F 49% 30.25 in 10.0 mi Calm Calm - N/A   Scattered Clouds
8:35 PM 64.4 °F 44.6 °F 49% 30.25 in 10.0 mi NW 3.5 mph - N/A   Clear
8:55 PM 62.6 °F 44.6 °F 52% 30.25 in 10.0 mi NNE 3.5 mph - N/A   Clear
9:15 PM 62.6 °F 42.8 °F 48% 30.26 in 10.0 mi Calm Calm - N/A   Clear
9:35 PM 59.0 °F 42.8 °F 55% 30.26 in 10.0 mi Calm Calm - N/A   Clear
9:55 PM 59.0 °F 42.8 °F 55% 30.26 in 10.0 mi Calm Calm - N/A   Clear
10:15 PM 55.4 °F 41.0 °F 58% 30.26 in 10.0 mi Calm Calm - N/A   Clear
10:35 PM 55.4 °F 41.0 °F 58% 30.27 in 10.0 mi Calm Calm - N/A   Clear
10:55 PM 53.6 °F 41.0 °F 62% 30.26 in 10.0 mi Calm Calm - N/A   Clear
11:15 PM 53.6 °F 41.0 °F 62% 30.26 in 10.0 mi Calm Calm - N/A   Clear
11:35 PM 51.8 °F 41.0 °F 67% 30.26 in 10.0 mi Calm Calm - N/A   Clear
11:55 PM 51.8 °F 41.0 °F 67% 30.25 in 10.0 mi Calm Calm - N/A   Clear